Regional Weather Roundup
Issued by NWS State College, PA

Home | Current Version | Previous Version | Text Only | Print | Product List | Glossary On
Versions: 1 2 3 4 5 6 7 8 9 10 11 12 13 14 15 16 17 18 19 20 21 22 23 24 25 26 27 28 29 30 31 32 33 34 35 36 37 38 39 40 41 42 43 44 45 46 47 48 49 50
000
ASUS41 KCTP 031303
RWRCTP

REGIONAL WEATHER ROUNDUP
NATIONAL WEATHER SERVICE STATE COLLEGE PA
800 AM EST SAT DEC 03 2016

Note: "fair" indicates few or no clouds below 12,000 feet with no
significant weather and/or obstructions to visibility.

* = STATION THAT DOES NOT REPORT PRECIPITATION /E.G. RAIN...SNOW...ETC/
    THUNDER OR FOG.

PAZ002>004-007>009-013>016-020>023-029>032-031400-
WESTERN PENNSYLVANIA

CITY           SKY/WX    TMP DP  RH WIND       PRES   REMARKS
ERIE           CLOUDY    41  34  76 W13G18    30.22R
MEADVILLE      CLOUDY    36  31  82 W7        30.21R
FRANKLIN*        N/A     34  28  80 W9        30.22R
NEW CASTLE     CLOUDY    36  30  79 W7        30.26R
BEAVER COUNTY  NOT AVBL
BUTLER*        CLOUDY    34  27  75 SW9       30.27R
PITTSBURGH INT CLOUDY    37  29  72 W12       30.27R
PITTSBURGH     CLOUDY    35  27  72 W12       30.26R
INDIANA*       CLOUDY    36  30  80 W10       30.23R
LATROBE        CLOUDY    34  28  80 W12       30.27R
WASHINGTON CO* CLOUDY    34  27  75 W6        30.29R
$$

PAZ004>006-010>012-017>019-024>028-033>037-041-042-045-046-049>053-031400-
CENTRAL PENNSYLVANIA

CITY           SKY/WX    TMP DP  RH WIND       PRES   REMARKS
BRADFORD       LGT SNOW  34  32  92 NW10      30.10S FOG
DUBOIS         CLOUDY    34  30  85 W14G22    30.15R
CLEARFIELD     CLOUDY    36  32  85 W10       30.15R
JOHNSTOWN      CLOUDY    32  28  85 W21       30.15R
ALTOONA        CLOUDY    37  29  72 W9        30.17R
STATE COLLEGE  CLOUDY    37  30  75 NW7       30.13R
WILLIAMSPORT   CLOUDY    40  34  79 W9        30.10R
SELINSGROVE    CLOUDY    41  34  76 NW6       30.13R
FT INDIANTOWN  CLOUDY    42  30  62 VRB6G17   30.10R
CAPITAL CITY   MOCLDY    43  29  57 NW12      30.12R
HARRISBURG     MOCLDY    43  32  65 W9        30.12R
YORK           PTCLDY    41  31  67 W12       30.13R
$$

PAZ038>040-043-044-047-048-054-055-060>062-067>071-031400-
EASTERN PENNSYLVANIA

CITY           SKY/WX    TMP DP  RH WIND       PRES   REMARKS
SCRANTON       CLOUDY    38  29  70 NW9       30.05R
MOUNT POCONO   MIX PCPN  32  25  75 NW23G33   29.97R
ALLENTOWN      CLOUDY    42  27  55 W8        30.06S
QUAKERTOWN*    CLOUDY    41  28  60 NW6       30.07R
READING        CLOUDY    41  33  73 W7        30.09S
LANCASTER      CLOUDY    43  33  68 W8        30.11R
COATESVILLE    PTSUNNY   41  32  70 NW8       30.10R
POTTSTOWN      CLOUDY    40  31  70 W10       30.10R
BLUE BELL      CLOUDY    41  32  70 W5        30.07R
DOYLESTOWN     MOCLDY    42  29  59 NW7G17    30.06R
WILLOW GROVE   NOT AVBL
NORTH PHILA    CLOUDY    44  29  55 NW10      30.09R
PHILADELPHIA   MOCLDY    44  30  57 NW17G24   30.10R
$$




USA.gov is the U.S. government's official web portal to all federal, state and local government web resources and services.